Погода в Малокурильском

Россия / Сахалинская область     43°52′00″N   146°49′42″E
темп.,
°C
ветер,
м/с
пор.,
м/с
влажн.,
%
обл.,
%
осадки,
мм/ч
давл.,
гПа
погр.,
м
9 декабря, чт
чт923:00+3с6866100 0.0 1030785
02:00+2с6867100 0.0 1030699
05:00+3с5767100 0.0 1031597
08:00+2с4570100 0.0 1032412
11:00+3ссв236299 0.0 1033762
14:00+4всв225878 0.0 1032687
17:00+3вюв11623 0.0 1032263
20:00+2ююв34664 0.0 1033372
10 декабря, пт
пт1023:00+2ю34684 0.0 1033368
02:00+2ю34725 0.0 1032352
05:00+2ю34735 0.0 1031333
08:00+3ю34755 0.0 1030341
11:00+4ю34683 0.0 1030561
14:00+5ююв44685 0.0 1028675
17:00+4ююв23725 0.0 1027306
20:00+3юв23765 0.0 1027300
11 декабря, сб
сб1123:00+3юв23795 0.0 1026297
02:00+3юв34815 0.0 1025337
05:00+3вюв128182 0.0 1023301
08:00+3вюв1283100 0.0 1023300
11:00+4в0177100 0.0 1022377
14:00+5с0072100 0.0 1019600
17:00+4ссз1178100 0.0 1018264
20:00+3сз1183100 0.0 1018152
12 декабря, вс
вс1223:00+2зсз1186100 0.0 1017114
02:00+3зсз22855 0.0 1015119
05:00+3сз23820 0.0 1014139
08:00+3зсз237913 0.0 1014109
11:00+6зюз347262 0.0 1014264
14:00+6юз346965 0.0 1011354
17:00+5ююз2277100 0.0 1010141
20:00+5ю2384100 0.0 1009109
13 декабря, пн
пн1323:00+5ююв3483100 0.0 1006147
02:00+5ююв4688100 0.0 1001173
05:00+7ююв5987100 0.1 997259
08:00+5ююз51092100 7.4 992564
11:00+2сз121486100 7.9 991837
14:00+2з111568100 1.4 9911646
17:000з111455100 2.1 9922172
20:00−1з131552100 0.3 9912145